This is the latest recevied weather packets stored in our database for station/object vk4zu-13. If no packets are shown the sender has not sent any weather packets the latest 10 day(s).
| Time | Temp. | Humidity | Pressure | Rain* | Wind** | Luminosity | Snow |
|---|---|---|---|---|---|---|---|
| 1777269234 | 18.89° C | 88% | 1021.3 hPa | 3.3 mm | - | 7 W/m² | - |
| 1777269168 | 19.44° C | 88% | 1021.3 hPa | 3.3 mm | - | 7 W/m² | - |
| 1777269107 | 19.44° C | 88% | 1021.3 hPa | 3.05 mm | - | 7 W/m² | - |
| 1777269037 | 19.44° C | 88% | 1021.3 hPa | 2.79 mm | - | 7 W/m² | - |
| 1777268971 | 19.44° C | 87% | 1021.3 hPa | 2.29 mm | - | 7 W/m² | - |
| 1777268899 | 19.44° C | 87% | 1021.3 hPa | 2.29 mm | - | 9 W/m² | - |
| 1777268828 | 19.44° C | 87% | 1021.3 hPa | 1.78 mm | - | 9 W/m² | - |
| 1777268760 | 19.44° C | 86% | 1021.3 hPa | 1.52 mm | - | 9 W/m² | - |
| 1777268639 | 19.44° C | 86% | 1021.2 hPa | 0.76 mm | - | 11 W/m² | - |
| 1777268497 | 20° C | 85% | 1021.3 hPa | 0.25 mm | - | 11 W/m² | - |
| 1777268427 | 20° C | 85% | 1021.3 hPa | 0 mm | - | 12 W/m² | - |
| 1777268360 | 20° C | 85% | 1021.2 hPa | 0 mm | - | 12 W/m² | - |
| 1777268288 | 20° C | 84% | 1021.3 hPa | 0 mm | - | 16 W/m² | - |
| 1777268218 | 20° C | 83% | 1021.2 hPa | 0 mm | - | 16 W/m² | - |
| 1777268152 | 20° C | 83% | 1021.2 hPa | 0 mm | - | 18 W/m² | - |
| 1777268094 | 20.56° C | 82% | 1021.2 hPa | 0 mm | - | 19 W/m² | - |
| 1777268032 | 20.56° C | 81% | 1021.2 hPa | 0 mm | - | 23 W/m² | - |
| 1777267961 | 20.56° C | 81% | 1021.2 hPa | 0 mm | - | 25 W/m² | - |
| 1777267890 | 20.56° C | 80% | 1021.3 hPa | 0 mm | - | 32 W/m² | - |
| 1777267820 | 20.56° C | 80% | 1021.3 hPa | 0 mm | - | 35 W/m² | - |
| 1777267758 | 20.56° C | 80% | 1021.3 hPa | 0 mm | - | 40 W/m² | - |
| 1777267700 | 20.56° C | 79% | 1021.3 hPa | 0 mm | - | 44 W/m² | - |
| 1777267628 | 21.11° C | 78% | 1021.2 hPa | 0 mm | - | 54 W/m² | - |
| 1777267559 | 21.11° C | 78% | 1021.2 hPa | 0 mm | - | 60 W/m² | - |
| 1777267497 | 21.11° C | 78% | 1021.1 hPa | 0 mm | - | 67 W/m² | - |
* Rain latest hour (hover to see other rain measurements)
** Current wind speed in m/s (hover to see current wind gust speed)